GFSSE_sfc_30mbdewp_066.txt.gz
Dewpoint
66 68 70 71 71 70 70 70 70 70 69 68 69 69 69 68 68 67 67 66 66 66 66 65 65 65 65 66 66 67 66 66 66 66 65 65 64 64 65 65 64 65 65
67 66 70 70 71 70 70 70 70 70 68 68 69 69 69 68 68 67 67 67 67 67 66 66 65 64 65 65 66 66 66 66 65 65 65 64 64 64 64 64 64 64 64
64 67 67 70 71 71 70 70 70 70 69 68 69 69 68 68 68 68 68 67 67 67 66 65 64 64 65 65 65 65 65 65 64 63 62 62 63 62 62 62 62 62 62
62 67 66 69 71 71 70 70 70 69 69 68 69 69 68 68 68 68 67 67 67 66 65 65 64 64 64 64 64 64 65 63 61 61 59 60 61 61 61 61 61 60 60
63 64 66 68 69 70 70 69 69 69 69 68 69 69 68 68 68 67 66 66 66 65 64 63 63 63 63 62 62 61 61 62 62 56 58 58 59 60 60 59 59 57 57
62 63 66 66 67 70 70 69 69 69 69 68 69 68 68 68 67 67 66 65 64 64 63 62 62 62 61 59 58 57 57 56 56 54 56 58 59 59 57 57 57 56 56
61 66 66 65 66 68 69 68 66 66 68 68 69 68 68 67 66 66 65 64 63 62 63 62 62 61 59 58 59 57 57 56 51 53 54 56 56 56 56 56 55 55 55
61 67 67 66 66 66 66 65 65 65 66 66 68 68 67 66 65 65 64 63 63 63 63 63 62 61 60 59 57 55 56 53 51 52 54 56 56 55 55 55 54 54 53
64 65 66 67 66 64 63 63 61 62 65 65 68 67 66 65 64 64 64 63 64 64 63 62 62 61 60 57 56 54 53 54 51 52 54 55 55 55 54 54 54 53 53
64 66 65 67 65 64 63 61 60 60 61 65 67 66 65 64 65 64 64 64 64 63 62 62 61 61 58 57 54 52 52 52 50 51 54 55 55 54 53 53 53 53 53
63 64 65 65 64 64 63 61 60 61 60 62 66 65 64 64 64 63 63 63 63 63 62 62 61 59 57 54 52 55 54 49 50 52 54 56 54 53 53 53 53 52 52
60 64 65 64 63 62 61 63 63 62 61 57 64 64 62 63 63 63 63 63 63 62 61 61 60 57 54 53 52 51 51 51 51 53 55 55 53 53 53 52 52 52 51
60 62 64 63 63 62 61 62 63 60 61 63 64 62 62 63 62 63 62 61 61 61 59 59 58 53 49 50 51 51 53 51 52 53 55 55 54 53 53 52 52 51 51
59 61 62 62 62 63 62 62 61 61 62 63 63 61 62 62 61 62 57 58 56 56 55 55 53 51 47 49 52 53 51 51 52 53 55 54 54 52 53 52 52 51 50
57 60 60 60 60 60 61 62 62 61 62 61 62 61 61 60 61 60 56 56 54 55 54 51 51 51 49 49 52 51 52 52 53 53 54 55 56 54 52 52 52 51 50
57 59 60 60 59 59 61 61 61 61 62 61 61 61 60 59 60 59 57 53 54 54 54 51 52 50 49 50 51 51 51 52 52 53 54 55 55 55 53 52 52 52 52
57 58 59 59 59 60 60 60 61 61 61 60 60 61 60 58 59 59 59 56 55 54 54 53 53 50 49 49 50 51 51 52 53 54 54 55 56 55 55 55 53 52 52
56 58 58 59 59 59 59 59 60 61 60 59 59 60 60 58 57 59 58 57 55 54 55 53 51 50 49 48 49 49 50 51 52 53 53 54 55 55 56 56 55 55 54
55 58 58 58 58 58 58 59 59 60 60 58 58 59 59 57 55 57 57 57 55 54 54 52 50 49 48 48 49 49 50 50 51 51 52 52 54 54 56 57 56 56 56
55 59 58 58 58 58 58 59 59 58 59 58 58 58 57 56 55 56 55 57 53 55 52 51 50 50 48 47 45 46 49 49 50 50 50 51 52 53 55 56 57 56 56
56 56 58 58 57 57 57 57 56 56 57 57 56 55 55 55 54 53 54 53 50 49 49 49 50 47 47 47 44 46 45 47 48 47 48 49 49 50 51 55 56 56 56
56 58 58 58 56 56 56 56 56 56 56 55 57 54 56 54 53 52 53 53 53 51 50 49 47 45 46 45 42 42 40 42 43 46 45 46 46 47 48 49 54 54 54
54 56 57 57 56 55 56 57 56 56 55 54 56 56 54 53 52 51 53 53 52 54 51 50 51 47 47 45 43 42 41 41 43 45 45 45 45 46 46 47 47 48 50
52 57 57 57 56 55 56 56 55 54 53 52 54 55 54 54 52 50 53 54 53 54 53 54 54 53 51 47 45 47 50 51 46 45 45 45 47 46 46 48 47 48 47
51 55 56 56 56 55 55 55 55 53 54 52 53 55 55 55 54 55 54 55 57 54 55 55 54 54 54 51 49 50 50 51 52 50 46 45 46 47 47 46 46 46 47
51 54 54 56 56 56 55 54 54 52 53 52 52 53 54 53 53 55 54 56 56 56 55 55 55 54 55 54 53 53 53 49 49 50 49 48 46 47 47 48 47 46 46

GFSSE_sfc_30mbdewp_069.txt.gz
Dewpoint
67 71 71 70 70 71 70 70 70 69 69 70 70 69 69 69 68 68 67 67 66 66 65 66 67 66 66 67 67 67 67 67 67 67 66 66 65 65 65 66 66 65 66
68 70 71 70 70 70 70 70 70 69 69 70 70 69 68 68 68 67 67 66 66 66 65 66 65 65 65 66 67 67 66 66 66 66 65 65 64 65 64 64 65 65 65
67 69 71 71 70 70 70 70 70 69 69 70 70 69 68 68 68 67 67 68 68 67 65 63 64 64 66 67 66 66 66 65 65 64 64 63 64 64 64 64 64 63 63
67 68 70 71 70 70 70 70 70 69 69 69 69 69 68 68 68 68 68 68 67 66 66 64 64 64 66 66 65 65 64 63 63 62 62 62 63 63 63 62 61 61 60
64 67 68 70 71 70 70 70 70 69 69 69 69 68 68 68 69 68 67 67 66 66 65 64 64 64 65 65 65 64 63 62 60 59 60 61 61 62 61 60 60 59 59
62 66 67 68 71 71 70 70 70 69 69 69 69 68 68 68 68 67 67 66 66 65 64 63 64 64 63 63 63 62 60 60 58 58 59 60 59 59 58 57 57 57 57
63 67 67 67 69 70 69 69 68 69 69 69 68 68 68 68 67 67 66 65 65 65 63 64 63 62 61 60 59 57 58 56 55 56 56 58 58 58 56 56 55 55 55
66 67 66 66 68 66 67 67 67 66 67 66 66 67 66 67 67 66 65 65 65 64 63 64 62 61 60 59 57 55 57 56 55 56 56 55 57 55 56 55 55 55 54
66 65 66 66 66 65 65 65 64 65 63 65 64 65 66 66 66 65 65 64 64 64 63 63 61 61 59 57 55 55 56 55 55 55 55 54 55 55 55 54 54 54 53
65 65 65 66 64 63 63 63 63 64 63 60 62 65 66 65 65 65 65 64 64 63 63 62 61 59 57 55 53 57 56 55 54 55 55 55 55 54 54 54 54 54 53
64 64 64 65 64 63 62 62 62 63 63 60 61 60 65 64 64 64 64 64 63 63 62 62 60 58 56 53 55 55 52 53 54 55 55 56 54 54 54 54 54 53 53
61 63 64 64 63 63 62 62 61 61 62 60 60 60 64 63 62 63 64 63 63 63 62 61 58 57 54 52 52 52 52 53 54 54 56 56 54 54 54 54 53 53 52
61 63 63 63 62 61 61 62 61 61 59 59 58 59 64 62 63 63 63 62 62 62 60 59 57 54 51 51 50 52 52 53 54 54 56 55 54 54 53 53 53 52 52
60 62 62 63 62 62 62 62 61 60 60 58 58 58 63 63 62 62 61 61 60 59 58 56 53 51 50 50 50 53 52 53 54 54 56 55 55 53 53 53 52 52 52
59 60 61 62 62 61 60 61 61 60 61 60 62 62 63 62 61 59 59 58 57 56 55 53 51 50 47 49 51 52 52 53 53 54 53 53 55 54 53 53 52 52 51
59 59 60 60 60 61 60 60 61 60 61 62 63 63 62 62 60 56 56 54 55 54 52 51 51 48 47 48 51 52 52 53 53 53 54 54 54 54 53 53 52 52 51
58 59 60 59 60 60 61 60 60 61 61 62 62 62 61 61 58 55 54 54 55 54 50 51 52 51 49 51 51 52 53 53 52 53 54 55 55 53 54 54 53 53 52
57 59 59 59 59 59 60 61 60 61 61 61 61 61 60 61 59 57 54 54 55 53 51 52 53 50 50 49 50 51 52 53 53 53 53 54 55 54 54 55 55 54 53
58 58 58 58 58 59 58 59 60 60 60 60 60 60 60 59 60 59 56 55 55 53 55 52 52 49 49 49 49 50 51 53 53 53 53 54 55 55 55 56 56 56 55
58 58 57 58 59 58 59 59 59 60 59 59 59 59 59 58 59 58 58 57 58 54 55 53 51 50 49 49 48 48 50 52 53 53 53 54 54 54 55 55 56 56 56
58 58 58 58 58 58 57 57 56 56 58 58 58 59 58 57 57 57 57 57 56 56 54 52 51 49 49 49 47 47 49 50 50 51 53 52 54 54 55 55 56 55 56
57 58 58 58 58 57 57 57 56 56 58 58 58 58 57 57 55 55 56 56 53 56 55 52 48 48 47 48 45 45 43 44 47 48 49 50 52 52 54 55 56 56 56
56 58 57 57 57 57 57 57 56 56 56 56 56 56 56 56 54 53 55 55 53 55 54 52 47 45 44 45 45 43 41 40 42 44 46 46 47 48 50 53 55 56 56
56 57 58 56 56 56 57 56 55 54 53 54 54 55 54 55 53 52 53 53 52 54 51 50 50 47 46 42 45 47 47 48 42 43 45 45 45 47 46 47 50 54 54
56 56 57 56 55 55 56 56 54 52 53 53 54 53 53 54 53 52 53 52 52 53 53 52 53 50 48 47 44 46 47 49 51 48 44 44 46 47 47 47 47 48 48
56 56 56 55 55 55 56 55 54 53 52 52 53 54 54 54 54 54 51 55 54 53 55 54 53 53 53 53 49 47 46 46 48 49 48 47 44 45 47 48 47 47 47

GFSSE_sfc_30mbdewp_072.txt.gz
Dewpoint
68 70 71 70 70 70 70 69 69 70 70 70 70 70 70 70 69 69 68 68 68 68 67 67 68 68 68 67 68 68 68 68 68 67 66 66 66 66 66 66 66 65 66
69 71 70 70 71 70 70 69 69 70 70 70 70 69 69 69 68 68 68 67 68 68 66 67 67 67 67 67 68 67 67 67 66 66 66 65 65 65 65 65 65 65 65
69 71 70 70 70 70 70 70 69 70 70 70 69 69 69 68 68 67 67 67 67 67 66 65 66 66 66 67 67 67 67 66 66 66 65 64 64 64 64 64 65 64 64
68 70 70 70 70 70 70 70 69 70 70 69 69 68 68 68 67 68 68 67 67 67 64 64 66 66 67 67 66 66 65 65 64 64 63 63 64 64 63 63 63 62 62
67 69 71 69 70 70 70 70 69 69 70 69 68 68 68 67 69 69 68 68 66 64 64 63 65 66 66 66 65 64 63 63 62 61 62 63 63 62 62 62 61 60 59
66 67 70 70 70 70 70 70 69 69 69 69 68 68 68 68 69 68 68 67 66 66 65 64 65 66 66 65 64 63 62 60 60 61 62 61 61 61 60 59 59 59 58
65 67 68 70 70 70 70 70 69 69 69 69 68 68 68 69 68 68 67 66 66 65 65 65 65 65 64 63 61 61 60 59 57 58 59 60 60 59 58 58 57 56 56
65 66 67 69 70 70 69 68 68 68 69 68 68 68 68 68 67 67 67 66 66 65 65 65 64 63 61 59 61 59 59 57 56 56 56 58 59 57 55 56 55 55 55
66 66 66 66 67 66 68 67 66 65 67 66 65 65 63 65 65 66 66 66 65 65 65 64 63 61 59 59 59 59 58 57 55 54 54 57 55 55 55 55 55 55 54
65 65 66 65 64 64 64 65 65 66 64 64 64 62 63 64 65 65 66 65 64 64 64 63 62 60 58 59 58 58 58 56 55 55 53 56 55 54 54 54 54 54 54
63 63 65 65 63 63 63 64 65 65 64 64 63 61 62 64 64 65 64 64 64 63 63 62 60 58 58 59 58 58 55 55 55 55 54 55 55 54 54 54 54 54 54
61 62 64 64 63 63 62 63 63 63 63 62 61 62 60 59 64 63 64 64 63 62 62 61 59 57 55 56 56 55 54 54 55 55 53 55 54 54 54 54 54 54 53
61 63 63 63 62 62 61 61 61 61 62 61 60 60 59 60 64 63 63 62 62 62 61 59 57 53 52 51 52 53 54 54 55 55 55 55 55 54 54 54 54 53 53
61 62 63 62 61 60 61 61 60 60 59 59 60 60 59 61 63 62 61 61 60 59 59 57 54 52 51 51 52 53 53 54 54 55 56 56 55 54 54 54 53 53 52
60 61 62 62 62 61 61 61 60 60 59 58 58 60 63 62 61 61 60 60 59 58 56 55 52 50 50 51 53 53 53 54 54 55 55 56 55 54 53 53 53 53 52
59 60 61 62 61 60 60 60 60 60 61 59 58 58 62 61 60 59 59 59 57 56 55 53 51 48 48 51 52 52 53 53 54 54 55 55 55 55 54 53 53 52 52
59 59 60 60 61 59 59 60 60 60 61 61 59 60 63 61 59 59 57 56 55 53 52 51 51 47 48 51 52 52 53 53 53 53 54 54 55 55 54 54 53 53 52
58 59 59 60 59 60 60 60 60 60 61 61 62 61 62 59 57 56 54 54 53 51 50 50 52 47 47 51 52 52 52 52 52 53 54 54 54 54 54 55 54 54 53
58 59 59 59 59 59 60 60 59 60 61 61 62 62 62 58 56 54 54 54 52 50 49 51 52 49 48 50 52 52 53 52 52 53 53 54 54 54 54 55 55 55 55
58 58 58 58 58 58 58 59 59 59 59 60 61 61 61 59 56 54 54 55 53 49 50 52 52 50 49 50 50 51 53 53 53 52 53 53 54 54 54 55 55 55 55
57 57 57 58 58 57 57 57 58 57 58 59 60 60 59 60 58 54 53 56 53 53 52 52 52 49 49 50 48 49 51 53 53 52 53 53 53 54 54 54 55 55 55
56 56 57 57 58 58 56 57 56 57 58 58 59 59 59 58 59 56 53 57 56 54 55 53 51 49 48 49 47 47 46 47 50 52 53 53 53 54 54 54 54 55 55
57 57 57 57 57 57 57 56 56 56 57 57 57 58 59 58 57 58 55 56 56 56 54 53 50 48 47 48 47 46 43 44 45 46 49 52 52 53 53 54 55 55 55
57 57 57 57 57 57 57 56 55 54 54 55 56 57 57 58 57 56 57 56 55 56 54 53 51 48 47 46 46 46 45 44 43 42 45 47 49 51 52 53 54 55 55
57 57 56 56 56 56 56 55 55 54 54 55 56 56 56 57 56 55 56 56 55 56 55 53 53 50 48 46 44 46 47 50 49 45 41 43 46 46 48 50 52 54 55
57 56 56 55 55 56 56 56 55 54 54 54 54 54 55 55 55 54 55 55 55 55 56 54 54 52 49 45 45 45 46 46 48 49 47 46 43 44 47 47 48 48 50

GFSSE_sfc_30mbdewp_078.txt.gz
Dewpoint
66 69 70 69 69 70 69 70 71 71 71 70 70 71 71 71 71 70 69 69 69 69 69 69 69 69 68 68 68 69 68 68 67 67 67 67 66 66 67 67 67 66 67
67 69 70 70 69 70 69 70 71 71 72 71 71 71 71 71 70 69 69 69 69 69 69 69 69 67 68 67 68 68 68 67 67 67 67 66 66 66 66 67 66 66 66
67 69 70 70 70 70 70 69 71 71 71 71 71 71 70 70 69 69 70 69 69 68 68 68 67 67 67 68 68 68 68 67 67 66 66 65 65 65 66 66 66 66 65
67 69 69 70 70 70 70 69 70 71 71 71 71 70 70 70 69 69 68 69 68 68 68 67 67 67 68 68 68 67 67 67 66 65 64 64 64 65 65 64 65 65 65
68 68 69 70 70 70 70 70 70 70 71 70 70 70 70 69 69 69 68 68 68 67 67 67 67 68 68 67 67 67 66 65 65 64 64 64 64 65 64 63 64 64 64
68 68 69 70 70 70 69 70 69 70 70 70 70 70 69 69 69 69 69 68 67 67 67 67 67 67 67 66 66 65 64 64 63 63 63 64 63 63 62 61 61 61 61
68 68 68 69 70 70 69 70 69 69 69 69 69 69 69 69 69 69 68 67 67 67 67 67 67 66 66 65 65 64 63 62 60 61 62 62 62 61 61 60 60 60 60
66 68 68 69 69 70 69 69 69 69 69 69 69 69 68 67 66 66 67 67 66 67 67 67 66 65 65 64 63 62 61 60 60 60 61 61 62 61 60 60 58 58 57
65 66 68 68 68 69 69 69 67 67 67 68 67 65 65 63 64 64 65 66 65 66 67 66 65 64 64 63 62 61 60 59 58 59 60 61 61 60 58 56 56 54 54
65 65 65 67 67 68 68 69 67 67 66 65 64 64 63 61 62 62 64 64 64 66 66 65 64 64 63 62 61 59 58 56 56 57 58 59 60 56 55 54 55 56 55
64 64 65 65 66 66 66 66 67 66 65 64 63 62 62 62 62 62 64 64 65 65 65 63 63 63 62 61 60 59 55 54 55 55 57 57 56 56 56 56 55 54 54
62 63 64 64 63 63 65 66 66 65 64 63 62 61 60 61 61 62 62 64 63 64 63 62 63 62 60 59 59 56 55 54 54 55 56 56 58 56 55 54 53 53 56
62 62 63 63 62 62 63 64 65 64 63 63 62 60 60 62 62 63 62 63 62 63 60 60 61 59 58 58 55 55 54 54 54 54 55 54 55 52 53 55 55 54 54
60 61 62 62 63 62 62 63 63 63 63 62 62 62 62 62 62 61 62 62 62 61 58 59 59 57 57 55 54 55 54 54 53 54 53 55 55 55 56 56 55 55 53
59 60 61 62 62 62 62 61 61 62 62 62 62 61 61 61 61 62 62 62 62 60 57 55 55 55 54 54 54 54 54 54 54 54 54 55 57 57 56 56 55 53 52
59 60 61 61 61 61 61 60 60 61 61 61 61 61 60 60 60 61 62 61 60 59 56 53 53 53 53 53 53 54 54 54 55 55 55 55 56 55 55 54 53 53 53
59 60 61 61 60 60 60 60 59 59 59 59 60 60 59 60 60 61 61 60 59 58 55 52 51 52 52 53 53 53 54 54 55 55 55 55 55 55 55 55 54 53 53
59 59 60 60 60 59 59 60 60 59 58 58 59 60 60 59 62 62 61 60 58 57 54 51 50 52 52 52 52 53 53 54 54 55 55 55 55 55 55 55 55 54 53
58 59 59 59 59 58 58 58 58 60 60 60 59 59 60 59 60 61 60 58 56 55 54 51 50 51 52 52 52 52 53 53 54 54 54 54 54 54 55 55 55 54 55
58 58 58 59 58 58 57 58 59 59 60 60 60 59 59 60 60 61 59 56 56 54 52 50 49 50 52 52 52 52 52 53 53 53 54 54 54 54 54 55 55 55 55
57 58 58 58 58 57 56 56 57 57 58 59 61 61 60 59 60 59 57 55 54 52 52 51 49 50 51 52 51 51 51 52 52 52 53 53 54 54 54 54 55 55 55
57 57 57 57 57 57 58 58 56 57 58 59 60 59 58 58 58 56 55 54 52 51 51 51 48 49 51 52 50 50 49 50 51 52 52 53 53 53 53 54 54 54 54
56 56 57 57 56 57 57 57 57 57 58 58 58 59 58 58 57 56 55 53 50 50 51 51 49 48 50 51 51 49 48 47 50 51 52 52 52 53 53 53 54 54 54
56 56 57 56 55 56 56 56 56 55 55 56 58 59 59 58 57 56 55 53 50 49 50 51 51 48 50 50 49 49 49 49 48 47 49 52 52 52 53 53 53 53 54
56 56 56 56 55 55 55 55 54 55 55 56 57 58 58 59 57 56 57 53 52 52 52 52 52 50 50 50 48 48 47 48 48 46 46 48 51 52 52 53 53 53 53
55 56 56 56 56 55 55 54 54 54 54 55 55 56 57 57 58 57 57 56 56 55 54 54 53 51 50 50 49 48 47 46 46 45 43 46 48 48 51 53 53 53 54

GFSSE_sfc_30mbdewp_081.txt.gz
Dewpoint
66 68 69 68 68 70 71 71 71 71 71 71 71 71 71 71 71 71 71 70 70 69 69 68 69 69 68 68 69 69 69 68 68 68 68 68 67 68 67 67 66 65 67
66 68 69 68 68 70 70 71 71 71 71 71 71 71 71 71 71 71 70 70 69 69 68 69 69 69 68 69 69 69 68 68 68 67 67 67 67 66 67 67 66 66 67
68 69 69 68 68 70 70 71 72 72 71 71 71 71 71 71 70 70 70 70 69 69 69 69 69 68 68 69 69 68 68 68 67 67 66 65 66 66 66 67 67 67 66
68 69 69 68 69 70 70 71 71 72 72 71 71 71 71 71 70 70 70 69 69 69 69 68 68 67 68 69 68 68 67 67 67 66 64 65 65 66 66 66 66 66 65
67 68 69 69 68 69 69 70 70 70 71 71 71 71 71 70 70 69 69 69 69 69 68 67 67 68 69 68 68 67 66 66 65 64 64 64 64 65 65 65 65 65 64
67 68 69 69 68 68 70 69 70 70 70 70 71 70 70 70 69 68 68 69 68 69 68 67 67 68 68 67 67 66 65 64 64 63 64 64 63 63 63 63 64 64 64
67 68 69 69 68 68 69 69 69 70 69 69 70 70 69 69 68 67 67 68 68 68 68 67 68 68 67 66 66 65 64 64 63 63 63 62 62 62 61 61 61 61 61
67 68 68 69 69 68 68 69 69 69 69 69 70 70 69 67 67 65 65 65 65 67 67 68 67 67 66 65 65 63 63 62 62 61 61 61 62 61 60 60 59 60 60
68 68 67 68 69 68 68 69 69 68 68 68 69 69 65 65 65 64 63 63 65 66 66 67 66 66 65 64 63 62 61 61 60 60 60 60 62 60 59 59 58 58 59
66 67 68 68 68 69 69 68 68 68 67 66 66 65 64 63 62 61 63 62 63 66 66 66 65 65 64 63 62 61 60 60 59 59 59 60 61 58 58 57 54 54 57
65 66 67 66 67 68 68 69 68 67 66 65 65 64 63 62 61 60 62 63 62 65 66 65 65 64 63 62 61 60 58 57 57 57 58 61 59 57 54 57 56 56 55
63 64 66 65 66 66 66 67 68 67 66 64 64 63 62 62 62 61 61 62 63 65 65 64 64 62 61 60 58 57 56 56 56 56 56 58 57 56 57 57 56 55 53
63 62 65 65 65 65 65 66 66 65 65 63 62 62 61 61 61 59 61 62 64 64 64 63 62 60 60 59 57 56 56 56 55 55 55 58 58 57 56 53 53 53 54
61 63 63 64 64 64 64 64 64 63 64 63 62 61 61 61 61 62 62 63 63 63 63 62 61 59 59 58 57 56 55 54 54 54 53 58 57 55 53 56 56 56 56
60 62 62 63 63 63 63 63 63 63 63 63 62 61 61 60 61 62 62 63 63 61 61 60 59 58 58 57 57 56 55 54 54 52 52 55 55 57 56 57 57 56 54
59 61 61 61 62 62 62 63 62 63 63 62 62 62 61 61 62 62 62 62 62 60 60 59 58 57 57 56 56 55 54 54 54 53 53 54 57 58 58 57 56 54 53
58 60 60 61 62 62 61 62 62 61 62 62 62 62 61 61 61 61 61 62 61 59 57 57 57 56 56 55 55 55 54 54 54 54 54 54 55 56 57 57 55 53 53
58 60 61 62 62 61 61 61 60 60 60 60 61 61 61 61 61 62 61 61 61 58 56 55 55 54 55 54 53 54 53 54 54 54 54 54 53 52 55 55 55 54 54
58 60 60 61 60 60 60 60 60 60 60 59 59 60 60 60 60 61 61 61 60 58 55 54 54 54 53 53 53 53 53 53 54 54 54 54 54 53 53 55 54 54 54
58 60 60 60 59 60 59 59 59 60 60 60 59 59 60 60 60 62 61 60 59 58 55 53 53 54 53 53 51 52 53 53 53 54 54 54 54 54 54 54 54 53 55
58 59 58 59 58 58 57 57 58 57 58 59 60 60 60 60 60 60 60 58 58 57 55 53 53 53 53 53 52 52 52 54 54 54 54 54 54 54 54 54 54 53 53
57 58 58 58 58 58 57 57 57 57 58 59 60 60 60 59 60 60 58 58 57 56 55 52 52 52 52 53 51 50 49 51 52 53 53 54 54 54 54 54 54 54 53
57 58 57 57 58 58 58 58 58 58 58 58 58 58 58 59 60 59 57 57 56 55 54 52 52 52 51 53 52 50 49 48 50 51 53 53 53 53 53 54 54 55 55
56 58 57 57 57 57 59 56 56 55 55 57 58 58 58 58 57 57 57 56 54 55 53 52 52 52 52 51 52 50 51 51 48 48 51 52 53 53 53 53 53 53 54
57 57 56 56 57 57 57 55 56 55 56 58 58 58 58 57 57 56 56 53 53 53 53 52 51 51 52 52 51 51 49 51 52 50 48 49 51 52 52 53 53 53 53
56 56 55 55 55 56 56 55 56 54 55 56 57 57 57 57 57 57 56 55 53 53 53 53 52 51 52 53 51 51 49 49 49 49 48 49 49 51 52 53 54 54 54

GFSSE_sfc_30mbdewp_084.txt.gz
Dewpoint
61 64 69 69 70 70 71 70 71 72 71 71 71 71 71 71 71 72 71 71 71 71 70 69 69 68 68 68 69 70 70 69 69 69 68 68 68 68 67 67 66 66 68
63 66 68 68 69 70 71 71 71 72 71 71 71 71 71 71 72 71 71 71 71 70 69 69 68 68 68 69 70 69 69 69 69 68 68 67 67 67 66 66 66 67 68
64 67 68 68 69 71 71 71 72 72 71 71 71 71 71 71 71 71 71 70 70 70 69 69 69 69 69 70 69 69 69 68 68 67 66 65 66 67 67 67 67 67 67
63 66 67 68 69 70 71 71 72 72 72 71 72 71 71 71 71 70 70 70 70 69 69 69 69 69 69 69 69 69 68 67 67 66 64 64 65 66 66 66 66 66 66
63 65 66 68 69 70 70 71 71 71 71 71 71 71 71 71 70 70 70 70 70 70 69 68 68 69 69 69 68 68 67 66 66 63 63 63 64 66 66 66 66 65 65
63 65 68 68 69 70 70 70 70 70 71 71 71 71 71 69 68 70 70 69 69 69 68 68 68 69 68 68 67 66 66 65 63 61 63 64 64 65 65 65 65 65 65
64 66 68 68 68 68 69 70 70 70 70 71 71 68 68 67 69 69 68 66 68 67 67 67 68 68 68 67 66 65 65 63 62 62 63 64 64 64 64 64 63 63 63
64 67 67 68 68 67 69 69 70 70 69 69 69 68 68 68 66 65 65 65 66 66 66 66 68 68 67 66 65 64 63 63 62 61 61 62 63 63 62 62 62 62 61
66 67 68 68 68 67 67 69 68 69 69 68 69 68 65 65 64 65 65 64 64 64 65 67 67 67 66 65 64 63 63 62 60 60 60 61 62 61 60 60 60 61 60
67 67 68 68 68 67 67 67 68 68 68 68 68 67 65 64 65 65 65 65 64 64 65 66 67 66 65 64 63 62 62 61 58 58 58 61 62 60 59 58 59 59 59
65 66 68 68 68 68 68 68 68 68 67 67 66 66 64 64 65 65 64 64 64 64 65 66 66 65 64 63 62 61 60 58 57 56 59 62 60 59 57 56 56 57 57
61 64 66 67 68 68 67 68 68 67 67 66 65 65 64 64 64 63 62 63 63 65 65 66 65 64 63 62 61 60 58 57 56 55 59 60 59 57 57 56 56 56 56
58 63 65 67 67 67 66 67 68 68 67 66 65 65 64 63 62 60 59 62 63 62 62 64 64 62 61 60 59 58 56 57 53 53 58 58 58 57 58 57 57 56 55
56 62 65 66 66 66 66 66 67 66 66 66 65 65 63 62 61 59 59 58 61 61 61 64 63 61 60 59 58 57 56 53 52 51 56 58 59 57 57 56 54 54 55
55 60 64 65 65 65 65 65 65 65 65 65 64 64 63 61 60 58 57 60 63 64 63 63 62 61 60 58 57 56 55 53 52 50 52 58 58 57 53 53 56 57 56
51 58 63 63 64 64 64 63 64 64 64 64 64 63 62 60 60 60 60 62 62 62 63 62 61 60 58 56 56 55 54 53 52 50 50 55 56 56 57 56 57 56 54
50 57 62 63 63 63 62 62 64 63 64 64 63 62 62 61 61 61 61 61 62 62 63 62 60 59 56 55 55 55 54 52 50 50 49 53 54 56 57 58 57 55 53
50 56 62 62 62 63 62 61 61 63 63 63 63 63 62 61 62 61 61 62 62 61 62 61 59 56 55 54 54 53 51 50 51 51 50 52 53 53 57 58 57 55 54
51 56 61 62 62 62 61 61 61 62 62 62 63 62 62 61 61 61 61 62 61 60 61 60 59 55 54 53 53 52 51 51 52 51 49 50 51 52 52 56 55 55 55
52 57 60 61 62 61 60 60 60 61 61 61 61 61 61 61 61 62 62 62 61 59 59 59 57 55 54 52 51 51 52 52 52 51 50 50 50 51 50 53 53 52 54
53 57 60 61 61 61 60 59 59 59 60 60 60 60 61 61 61 61 61 61 60 58 58 58 57 55 54 53 51 52 52 52 53 52 53 51 50 51 51 50 50 49 52
53 57 60 60 61 60 58 58 58 58 59 58 58 59 60 60 60 61 61 60 59 58 57 57 57 55 54 53 51 51 50 52 53 53 53 52 51 50 51 51 50 49 49
52 57 59 60 60 59 57 58 58 58 58 58 58 59 60 60 60 60 60 60 59 58 56 56 57 55 53 53 51 49 48 46 50 52 52 53 51 52 50 50 51 51 51
50 56 58 59 59 59 58 57 56 54 54 55 58 59 59 59 60 60 60 59 59 58 56 56 57 55 53 52 52 51 47 44 46 48 51 52 52 52 51 49 50 51 51
51 56 58 58 58 58 58 56 55 54 54 56 59 58 58 57 58 58 59 58 58 58 57 56 56 55 54 53 51 51 51 50 48 44 45 49 51 52 52 52 51 51 52
51 57 58 57 57 58 58 56 55 54 54 55 58 57 57 57 57 56 56 57 57 57 57 57 56 55 54 53 53 53 51 51 48 47 45 46 47 50 51 52 53 53 52

GFSSE_sfc_30mbdewp_087.txt.gz
Dewpoint
55 65 70 70 70 70 71 71 72 71 71 71 72 72 72 72 72 72 72 71 71 71 71 70 70 69 69 69 69 70 71 70 70 70 70 69 68 68 67 67 66 66 68
58 64 69 70 70 71 71 71 71 71 71 71 72 72 72 72 72 72 71 71 71 71 71 70 69 69 69 69 71 70 70 69 69 69 68 68 67 67 66 66 66 67 68
60 64 67 69 70 71 71 71 71 72 72 71 72 72 71 72 71 72 71 71 71 71 70 69 68 68 69 70 70 69 69 69 68 68 67 64 66 67 67 67 68 68 67
59 64 65 69 70 71 71 71 71 72 72 72 71 72 71 72 72 70 70 71 71 70 70 69 68 69 70 69 69 69 68 68 67 66 64 63 65 67 67 67 67 67 67
54 60 66 68 70 70 71 71 71 72 72 72 72 71 72 72 71 69 69 70 70 70 70 69 69 70 70 69 69 68 67 66 66 65 64 64 65 66 67 67 66 66 66
55 58 68 68 69 70 70 71 71 72 72 71 72 71 71 69 68 68 67 69 69 69 69 68 69 69 69 68 68 67 66 66 65 63 64 64 64 66 66 66 66 66 66
58 60 68 68 69 70 70 70 71 70 71 71 71 71 69 68 67 68 68 68 68 68 67 66 68 69 68 67 67 66 65 65 63 64 64 64 65 65 65 65 65 66 66
59 62 67 68 68 69 69 70 70 70 70 71 70 69 69 67 67 67 66 65 64 66 64 65 67 68 67 67 66 65 64 63 61 62 64 64 65 65 64 64 64 64 64
61 64 66 67 67 68 68 69 69 70 69 69 68 68 67 66 65 66 65 65 65 65 64 64 66 67 67 66 65 64 63 63 61 62 63 63 64 63 63 63 63 62 62
63 65 66 67 67 67 67 68 68 69 69 69 69 67 66 65 65 65 65 65 64 64 64 64 63 65 66 65 64 63 63 62 60 60 61 62 62 61 61 61 61 61 61
63 65 67 67 66 67 67 67 68 68 68 68 68 66 65 63 65 65 65 64 63 63 64 65 65 66 65 64 63 63 62 59 60 61 61 63 62 60 59 59 59 59 59
60 63 66 67 67 68 65 67 66 65 65 65 64 65 63 63 64 64 64 64 63 64 64 65 65 65 64 63 63 62 59 58 59 60 60 61 60 59 58 58 57 57 57
56 60 63 66 67 67 66 66 65 65 66 66 65 64 63 64 65 64 64 64 64 63 62 65 65 64 61 62 62 61 59 58 57 59 60 61 60 58 57 57 57 57 57
53 57 62 64 66 64 62 63 62 67 67 65 65 65 64 64 64 64 62 62 61 63 62 63 64 63 62 61 61 59 58 57 53 57 59 60 59 58 58 56 57 56 55
50 54 61 63 65 63 64 65 65 65 66 66 65 65 65 63 64 62 61 60 60 63 62 61 61 61 61 60 59 58 57 53 50 52 56 58 59 59 57 56 55 54 56
43 51 61 62 64 63 65 65 65 65 66 66 65 64 64 63 62 62 61 60 61 63 62 61 61 61 61 60 58 57 52 51 50 49 54 56 58 58 56 55 56 57 56
35 45 58 63 63 63 63 64 64 65 65 64 64 64 63 62 61 61 60 62 61 62 63 61 61 61 60 58 57 53 51 51 50 49 51 54 56 56 56 58 58 57 55
31 38 55 62 62 63 61 61 63 64 64 63 63 63 63 62 61 60 61 62 63 62 63 61 61 60 58 56 54 53 50 50 49 48 49 52 53 52 57 58 58 57 54
30 40 52 62 62 62 61 61 60 62 63 62 63 63 63 62 62 62 62 63 63 62 62 62 61 60 57 55 54 52 49 47 48 48 49 51 53 54 55 57 57 55 55
32 44 53 62 61 62 62 61 60 60 60 61 62 63 63 62 61 62 61 62 62 62 61 61 60 60 58 54 52 49 49 49 48 48 48 49 50 52 52 55 55 54 55
39 48 54 61 61 62 61 60 58 59 59 60 61 62 62 62 62 62 62 61 62 60 60 60 59 58 57 54 52 52 53 53 52 52 50 47 49 49 51 53 52 50 52
44 50 55 60 61 62 60 59 58 58 57 59 60 61 61 61 62 61 61 61 61 60 60 60 59 57 57 54 51 51 51 52 53 53 53 51 50 48 48 50 50 49 49
45 50 54 58 60 61 59 58 57 57 57 58 59 58 60 61 61 61 61 61 60 60 59 59 59 57 55 53 53 50 49 46 51 53 54 54 54 49 48 48 49 49 49
45 50 54 57 59 60 59 57 56 55 54 56 55 56 58 59 59 60 61 61 60 59 58 59 59 57 55 53 53 51 49 45 48 50 52 53 53 51 51 49 49 49 49
41 49 54 57 58 59 58 57 56 54 52 53 55 57 58 59 59 59 60 60 59 59 58 58 57 58 57 54 53 52 50 48 49 47 47 51 53 51 51 52 49 50 50
35 49 56 57 57 58 58 57 56 54 52 53 56 58 58 58 57 58 58 59 59 58 58 58 57 57 57 54 53 52 50 48 48 46 47 48 50 49 50 51 52 51 51